"2009-08-14 00:00:00",1149409,8.61,196.3,4.094,0.438,21.82,110.0073,24.91,25.8,24.32,0,111.1,13.15,25.75,158.3
"2009-08-14 00:00:30",1149410,9.13,199.6,4.602,0.326,22.22,110.007,24.91,25.84,23.54,0,111.1,13.15,25.75,161.6
"2009-08-14 00:01:00",1149411,9.49,196.7,2.638,0.434,21.97,110.0085,24.92,25.83,23.72,0,111.1,13.15,25.76,158.7
"2009-08-14 00:01:30",1149412,9.62,198.3,0.954,0.374,21.84,110.0101,24.92,25.85,24.24,0,111.1,13.15,25.76,160.3
"2009-08-14 00:02:00",1149413,9.52,199.8,3.385,0.358,21.96,110.0101,24.92,25.85,23.98,0,111.1,13.15,25.76,161.8
"2009-08-14 00:02:30",1149414,8.73,200,3.159,0.264,22.17,110.0113,24.92,25.85,23.48,0,111.1,13.15,25.76,162.0
"2009-08-14 00:03:00",1149415,8.47,202.6,2.217,0.555,22.43,110.0104,24.92,25.85,22.32,0,111.1,13.15,25.76,164.6
"2009-08-14 00:03:30",1149416,9.06,203.1,3.187,0.299,22.53,110.0125,24.93,25.86,22.01,0,111.1,13.15,25.77,165.1
"2009-08-14 00:04:00",1149417,8.77,206.2,3.467,0.39,22.87,110.0124,24.93,25.87,21.38,0,111.1,13.15,25.77,168.2
"2009-08-14 00:04:30",1149418,8.58,217.6,3.674,0.322,23.34,110.021,24.95,25.86,19.09,0,111.1,13.15,25.79,179.6
"2009-08-14 00:05:00",1149419,7.992,220.3,1.915,0.217,23.21,110.0381,24.99,25.88,18.89,0,111.1,13.15,25.83,182.3
"2009-08-14 00:05:30",1149420,7.677,216.7,1.554,0.107,23.11,110.045,25.01,25.89,18.52,0,111.1,13.15,25.85,178.7
"2009-08-14 00:06:00",1149421,7.725,213.6,0.849,0.215,23.05,110.0573,25.04,25.93,18.39,0,111.1,13.15,25.88,175.6
"2009-08-14 00:06:30",1149422,8.18,215.2,1.488,0.251,23.02,110.0806,25.1,25.94,18.26,0,111.1,13.15,25.94,177.2
"2009-08-14 00:07:00",1149423,8.19,218.4,0.887,0.47,22.99,110.1084,25.17,26.01,18.17,0,111.1,13.15,26.01,180.4
"2009-08-14 00:07:30",1149424,5.858,223.3,4.024,0.847,23.22,110.1363,25.24,26.05,17.84,0,111.1,13.15,26.08,185.3
"2009-08-14 00:08:00",1149425,5.354,215.8,3.02,0.771,23.16,110.1624,25.31,26.08,17.63,0,111.1,13.15,26.15,177.8
"2009-08-14 00:08:30",1149426,7.665,216.6,1.855,0.151,22.82,110.186,25.37,26.14,17.9,0,111.1,13.15,26.21,178.6
"2009-08-14 00:09:00",1149427,7.052,218.1,1.989,0.307,22.77,110.2134,25.44,26.21,17.91,0,111.1,13.15,26.28,180.1
"2009-08-14 00:09:30",1149428,7.442,220,7.768,0.734,22.88,110.2401,25.51,26.26,17.88,0,111.1,13.15,26.35,182.0
"2009-08-14 00:10:00",1149429,6.263,217.3,6.235,0.688,22.77,110.2671,25.58,26.32,17.55,0,111.1,13.15,26.42,179.3
"2009-08-14 00:10:30",1149430,7.246,214.7,1.952,0.239,22.35,110.2932,25.65,26.38,18.41,0,111.1,13.15,26.49,176.7
"2009-08-14 00:11:00",1149431,7.005,217,1.537,0.135,22.45,110.3154,25.71,26.44,18.46,0,111.1,13.15,26.55,179.0
"2009-08-14 00:11:30",1149432,6.813,217.4,1.668,0.109,22.46,110.3433,25.78,26.5,18.06,0,111.1,13.15,26.62,179.4
"2009-08-14 00:12:00",1149433,7.332,216.5,1.041,0.186,22.36,110.3627,25.83,26.56,17.96,0,111.1,13.15,26.67,178.5
"2009-08-14 00:12:30",1149434,7.592,214.4,0.968,0.078,22.33,110.3782,25.87,26.62,17.86,0,111.1,13.15,26.71,176.4
"2009-08-14 00:13:00",1149435,7.778,213.4,1.043,0.107,22.35,110.4062,25.94,26.68,17.76,0,111.1,13.15,26.78,175.4
"2009-08-14 00:13:30",1149436,7.823,214,0.862,0.072,22.21,110.4204,25.97,26.73,17.66,0,111.1,13.15,26.82,176.0
"2009-08-14 00:14:00",1149437,7.74,212.5,0.751,0.09,22.14,110.436,26.01,26.77,18.16,0,111.1,13.15,26.86,174.5
"2009-08-14 00:14:30",1149438,7.92,213.6,1.126,0.156,22.24,110.4412,26.03,26.82,17.94,0,111.1,13.15,26.87,175.6
"2009-08-14 00:15:00",1149439,7.985,213.4,0.938,0.151,22.47,110.4542,26.06,26.87,17.43,0,111.1,13.15,26.90,175.4
"2009-08-14 00:15:30",1149440,7.807,209.7,1.223,0.208,22.46,110.4604,26.08,26.92,17.28,0,111.1,13.15,26.92,171.7
"2009-08-14 00:16:00",1149441,8.01,208.9,1.083,0.117,22.38,110.482,26.13,26.95,17.19,0,111.1,13.15,26.98,170.9
"2009-08-14 00:16:30",1149442,7.83,207.7,1.862,0.108,22.38,110.4915,26.16,27,17.09,0,111.1,13.15,27.00,169.7
"2009-08-14 00:17:00",1149443,7.727,211.3,1.332,0.214,22.4,110.5151,26.22,27.04,17.09,0,111.1,13.15,27.06,173.3
"2009-08-14 00:17:30",1149444,7.893,208.3,1.788,0.121,22.4,110.5221,26.24,27.08,17.03,0,111.1,13.15,27.08,170.3
"2009-08-14 00:18:00",1149445,7.586,204.2,1.428,0.242,22.59,110.5485,26.3,27.11,16.77,0,111.1,13.15,27.15,166.2
"2009-08-14 00:18:30",1149446,6.878,204.6,1.206,0.149,22.36,110.5525,26.31,27.16,16.89,0,111.1,13.15,27.16,166.6
"2009-08-14 00:19:00",1149447,7.055,205.1,0.916,0.158,22.34,110.5766,26.38,27.2,16.88,0,111.1,13.15,27.22,167.1
"2009-08-14 00:19:30",1149448,6.719,203.8,0.884,0.129,22.33,110.5842,26.4,27.24,16.83,0,111.1,13.15,27.24,165.8
"2009-08-14 00:20:00",1149449,6.807,202.8,1.014,0.175,22.33,110.6061,26.45,27.26,16.77,0,111.1,13.15,27.30,164.8
"2009-08-14 00:20:30",1149450,7,200.6,0.65,0.138,22.32,110.6168,26.48,27.31,16.64,0,111.1,13.14,27.32,162.6
"2009-08-14 00:21:00",1149451,7.014,201.7,1.665,0.223,22.24,110.6238,26.5,27.35,16.59,0,111.1,13.14,27.34,163.7
"2009-08-14 00:21:30",1149452,7.082,201.9,1.467,0.175,22.27,110.6494,26.56,27.38,16.53,0,111.1,13.14,27.41,163.9
"2009-08-14 00:22:00",1149453,7.161,202.6,0.741,0.118,22.19,110.651,26.57,27.42,16.48,0,111.1,13.14,27.41,164.6
"2009-08-14 00:22:30",1149454,8.06,200.6,2.227,0.28,21.89,110.6744,26.63,27.45,17.01,0,111.1,13.14,27.47,162.6
"2009-08-14 00:23:00",1149455,8.68,194.4,2.687,0.276,21.59,110.682,26.65,27.48,18.8,0,111.2,13.14,27.49,156.4
"2009-08-14 00:23:30",1149456,8.82,192.7,1.503,0.2,21.47,110.678,26.64,27.52,20.11,0,111.2,13.14,27.48,154.7
"2009-08-14 00:24:00",1149457,8.76,196.1,2.085,0.194,21.72,110.68,26.64,27.55,19.86,0,111.2,13.14,27.49,158.1
"2009-08-14 00:24:30",1149458,8.67,200.6,0.529,0.23,22.31,110.6863,26.66,27.57,17.73,0,111.2,13.14,27.50,162.6
"2009-08-14 00:25:00",1149459,8.79,199.9,0.53,0.159,22.6,110.6917,26.67,27.59,16.66,0,111.2,13.14,27.52,161.9
"2009-08-14 00:25:30",1149460,8.51,199.5,1.007,0.112,22.68,110.7015,26.7,27.58,16.29,0,111.2,13.14,27.54,161.5
"2009-08-14 00:26:00",1149461,8.3,203.1,3.074,0.196,22.67,110.7049,26.71,27.6,16.07,0,111.2,13.14,27.55,165.1
"2009-08-14 00:26:30",1149462,8.11,208.1,1.392,0.101,22.5,110.7075,26.71,27.61,15.96,0,111.2,13.14,27.56,170.1
"2009-08-14 00:27:00",1149463,7.895,208.6,1.192,0.166,22.34,110.7073,26.71,27.62,16.09,0,111.2,13.14,27.56,170.6
"2009-08-14 00:27:30",1149464,7.398,206.8,1.441,0.177,22.44,110.7067,26.71,27.62,16.11,0,111.2,13.14,27.56,168.8
"2009-08-14 00:28:00",1149465,7.608,207.2,0.907,0.092,22.49,110.7027,26.7,27.64,16.09,0,111.2,13.14,27.55,169.2
"2009-08-14 00:28:30",1149466,7.507,207,0.653,0.115,22.5,110.6958,26.68,27.63,16.07,0,111.2,13.14,27.53,169.0
"2009-08-14 00:29:00",1149467,7.508,205.3,0.61,0.107,22.54,110.6909,26.67,27.65,16.17,0,111.2,13.14,27.52,167.3
"2009-08-14 00:29:30",1149468,7.459,202.3,0.945,0.056,22.56,110.6943,26.68,27.65,16.12,0,111.2,13.14,27.52,164.3
"2009-08-14 00:30:00",1149469,7.891,202,0.378,0.145,22.64,110.6962,26.68,27.67,16.11,0,111.2,13.14,27.53,164.0
"2009-08-14 00:30:30",1149470,8.22,201.7,0.298,0.116,22.68,110.7116,26.72,27.67,16.06,0,111.2,13.14,27.57,163.7
"2009-08-14 00:31:00",1149471,8.44,200.7,0.636,0.078,22.82,110.7137,26.73,27.68,16.1,0,111.2,13.14,27.57,162.7
"2009-08-14 00:31:30",1149472,8.62,200.6,0.528,0.161,22.92,110.714,26.73,27.69,16.02,0,111.2,13.14,27.57,162.6
"2009-08-14 00:32:00",1149473,8.8,201.3,0.508,0.121,22.95,110.7143,26.73,27.69,15.93,0,111.2,13.14,27.58,163.3
"2009-08-14 00:32:30",1149474,8.81,202,1.768,0.283,23.04,110.7143,26.73,27.7,15.84,0,111.2,13.14,27.58,164.0
"2009-08-14 00:33:00",1149475,8.65,205.4,1.378,0.316,23.17,110.7143,26.73,27.72,15.43,0,111.2,13.14,27.58,167.4
"2009-08-14 00:33:30",1149476,8.22,203.1,0.777,0.182,23.13,110.7143,26.73,27.72,15.4,0,111.2,13.14,27.58,165.1
"2009-08-14 00:34:00",1149477,7.951,201.9,0.621,0.069,23.07,110.7148,26.73,27.73,15.51,0,111.2,13.14,27.58,163.9
"2009-08-14 00:34:30",1149478,7.762,201.3,0.604,0.077,23.1,110.7177,26.74,27.74,15.61,0,111.2,13.14,27.58,163.3
"2009-08-14 00:35:00",1149479,7.495,200.6,0.547,0.104,22.99,110.7219,26.75,27.75,15.73,0,111.2,13.14,27.60,162.6
"2009-08-14 00:35:30",1149480,7.249,200.3,0.337,0.086,22.93,110.7227,26.75,27.75,15.75,0,111.2,13.14,27.60,162.3
"2009-08-14 00:36:00",1149481,6.735,199.2,0.725,0.123,22.9,110.7221,26.75,27.75,15.74,0,111.2,13.14,27.60,161.2
"2009-08-14 00:36:30",1149482,6.433,197.4,1.019,0.072,22.97,110.7224,26.75,27.74,15.74,0,111.2,13.14,27.60,159.4
"2009-08-14 00:37:00",1149483,6.623,199.4,0.733,0.121,22.89,110.7219,26.75,27.76,15.85,0,111.2,13.14,27.60,161.4
"2009-08-14 00:37:30",1149484,6.622,200.2,1.084,0.063,22.87,110.7205,26.75,27.76,15.92,0,111.2,13.13,27.59,162.2
"2009-08-14 00:38:00",1149485,7.112,204.8,2.781,0.326,22.45,110.7168,26.74,27.75,16.39,0,111.2,13.13,27.58,166.8
"2009-08-14 00:38:30",1149486,7.805,201.9,1.234,0.324,21.65,110.7143,26.73,27.76,20.49,0,111.2,13.13,27.58,163.9
"2009-08-14 00:39:00",1149487,8.57,198.9,3.61,0.352,21.65,110.7143,26.73,27.76,21.53,0,111.2,13.13,27.58,160.9
"2009-08-14 00:39:30",1149488,8.77,199.3,2.201,0.263,21.99,110.7137,26.73,27.74,21.56,0,111.2,13.13,27.57,161.3
"2009-08-14 00:40:00",1149489,8.67,200.4,0.726,0.157,23.13,110.7045,26.71,27.74,18.36,0,111.2,13.13,27.55,162.4
"2009-08-14 00:40:30",1149490,8.65,198.3,0.271,0.078,23.27,110.684,26.65,27.71,16.57,0,111.2,13.13,27.50,160.3
"2009-08-14 00:41:00",1149491,8.48,197.3,1.143,0.086,23.18,110.6806,26.64,27.69,16.24,0,111.2,13.13,27.49,159.3
"2009-08-14 00:41:30",1149492,8.33,197,1.294,0.141,23.29,110.6744,26.63,27.67,16.07,0,111.2,13.13,27.47,159.0
"2009-08-14 00:42:00",1149493,8.31,200.6,2.223,0.221,23.33,110.6559,26.58,27.66,15.86,0,111.2,13.13,27.42,162.6
"2009-08-14 00:42:30",1149494,8.05,199.7,0.761,0.147,23.24,110.6481,26.56,27.62,15.87,0,111.2,13.14,27.40,161.7
"2009-08-14 00:43:00",1149495,8.08,198.6,0.498,0.098,23.14,110.6475,26.56,27.62,15.91,0,111.2,13.14,27.40,160.6
"2009-08-14 00:43:30",1149496,8.07,198.6,0.577,0.173,23.12,110.6453,26.55,27.58,15.94,0,111.2,13.14,27.40,160.6
"2009-08-14 00:44:00",1149497,7.867,199.8,0.818,0.149,23.13,110.634,26.52,27.58,15.93,0,111.2,13.14,27.37,161.8
"2009-08-14 00:44:30",1149498,7.764,200.2,0.996,0.131,23.1,110.6215,26.49,27.55,15.91,0,111.2,13.14,27.34,162.2
"2009-08-14 00:45:00",1149499,8.23,201.6,2.04,0.167,23.08,110.6159,26.48,27.54,15.88,0,111.2,13.14,27.32,163.6
"2009-08-14 00:45:30",1149500,8.58,204.1,0.605,0.06,23.04,110.6154,26.48,27.53,15.89,0,111.2,13.14,27.32,166.1
"2009-08-14 00:46:00",1149501,8.47,203.5,1.106,0.133,23,110.6176,26.48,27.5,15.91,0,111.2,13.14,27.33,165.5
"2009-08-14 00:46:30",1149502,8.77,203.1,1.21,0.242,22.66,110.6163,26.48,27.51,16.68,0,111.2,13.14,27.32,165.1
"2009-08-14 00:47:00",1149503,9.1,201.3,0.902,0.129,22.52,110.6163,26.48,27.5,17.68,0,111.2,13.14,27.32,163.3
"2009-08-14 00:47:30",1149504,9.8,199.1,1.314,0.215,22.34,110.6151,26.48,27.48,18.64,0,111.2,13.14,27.32,161.1
"2009-08-14 00:48:00",1149505,10.24,197.5,1.216,0.219,22.23,110.6016,26.44,27.48,19.31,0,111.2,13.14,27.28,159.5
"2009-08-14 00:48:30",1149506,10.19,198,1.4,0.224,22.39,110.5893,26.41,27.47,19.56,0,111.2,13.14,27.25,160.0
"2009-08-14 00:49:00",1149507,10.67,194.5,1.915,0.238,22.31,110.5867,26.4,27.46,19.57,0,111.2,13.14,27.25,156.5
"2009-08-14 00:49:30",1149508,10.53,193.9,1.537,0.253,22.44,110.591,26.41,27.42,19.66,0,111.2,13.14,27.26,155.9
"2009-08-14 00:50:00",1149509,10.78,192.9,0.776,0.135,22.38,110.5642,26.34,27.41,19.31,0,111.2,13.14,27.19,154.9
"2009-08-14 00:50:30",1149510,10.79,194.6,0.607,0.155,22.43,110.5627,26.34,27.38,19.1,0,111.2,13.14,27.18,156.6
"2009-08-14 00:51:00",1149511,11,194.1,0.892,0.151,22.44,110.5402,26.28,27.35,18.93,0,111.2,13.14,27.13,156.1
"2009-08-14 00:51:30",1149512,11.07,192.7,2.772,0.302,22.25,110.5336,26.27,27.32,19.18,0,111.2,13.14,27.11,154.7
"2009-08-14 00:52:00",1149513,11.28,191.8,1.095,0.265,22.43,110.5133,26.21,27.28,19.7,0,111.2,13.14,27.06,153.8
"2009-08-14 00:52:30",1149514,11.25,191.8,0.972,0.126,22.33,110.5006,26.18,27.25,19.87,0,111.2,13.14,27.02,153.8
"2009-08-14 00:53:00",1149515,11.47,192.7,0.766,0.142,22.44,110.473,26.11,27.2,19.55,0,111.2,13.14,26.95,154.7
"2009-08-14 00:53:30",1149516,10.94,191,3.419,0.569,22.29,110.4588,26.07,27.15,20.72,0,111.2,13.14,26.92,153.0
"2009-08-14 00:54:00",1149517,10.99,187.4,2.614,0.585,22.3,110.4381,26.02,27.11,21.89,0,111.2,13.15,26.86,149.4
"2009-08-14 00:54:30",1149518,11.4,190.2,0.918,0.115,22.47,110.4095,25.95,27.07,20.39,0,111.2,13.14,26.79,152.2
"2009-08-14 00:55:00",1149519,11.42,190.6,0.535,0.104,22.52,110.3985,25.92,27,20.6,0,111.2,13.14,26.76,152.6
"2009-08-14 00:55:30",1149520,11.66,191.1,0.512,0.104,22.47,110.3718,25.85,26.95,20.46,0,111.2,13.14,26.69,153.1
"2009-08-14 00:56:00",1149521,11.29,191.9,0.638,0.084,22.49,110.352,25.8,26.92,20.43,0,111.2,13.14,26.64,153.9
"2009-08-14 00:56:30",1149522,11.08,190.1,1.337,0.358,22.45,110.34,25.77,26.86,21.59,0,111.2,13.14,26.61,152.1
"2009-08-14 00:57:00",1149523,11.36,189.6,1.332,0.154,22.55,110.3116,25.7,26.82,20.9,0,111.2,13.14,26.54,151.6
"2009-08-14 00:57:30",1149524,11.35,188.7,0.965,0.203,22.47,110.3054,25.68,26.78,22.03,0,111.2,13.14,26.52,150.7
"2009-08-14 00:58:00",1149525,11.21,188.8,1.196,0.321,22.46,110.2772,25.61,26.72,22.63,0,111.2,13.14,26.45,150.8
"2009-08-14 00:58:30",1149526,11.4,187.6,0.951,0.176,22.47,110.2738,25.6,26.7,22.93,0,111.2,13.14,26.44,149.6
"2009-08-14 00:59:00",1149527,11.35,188.4,0.595,0.129,22.47,110.249,25.53,26.64,23.39,0,111.2,13.14,26.38,150.4
"2009-08-14 00:59:30",1149528,11.1,185.7,1.495,0.263,22.37,110.2429,25.52,26.59,23.27,0,111.2,13.14,26.36,147.7
"2009-08-14 01:00:00",1149529,11.01,188.2,1.166,0.285,22.41,110.216,25.45,26.56,22.94,0,111.1,13.14,26.29,150.2
"2009-08-14 01:00:30",1149530,11,184.8,1.976,0.345,22.31,110.2076,25.43,26.5,23.18,0,111.1,13.15,26.27,146.8
"2009-08-14 01:01:00",1149531,11.04,186.5,1.687,0.31,22.4,110.1831,25.37,26.48,23.28,0,111.1,13.15,26.21,148.5
"2009-08-14 01:01:30",1149532,10.98,185.6,0.955,0.271,22.33,110.1769,25.35,26.43,23.53,0,111.1,13.15,26.19,147.6
"2009-08-14 01:02:00",1149533,11.08,184.5,0.995,0.264,22.26,110.1545,25.29,26.41,23.96,0,111.1,13.15,26.13,146.5
"2009-08-14 01:02:30",1149534,11.02,186.4,1.663,0.379,22.29,110.1449,25.27,26.36,24.25,0,111.1,13.15,26.11,148.4
"2009-08-14 01:03:00",1149535,11.5,186,1.523,0.457,22.3,110.1331,25.24,26.33,24.62,0,111.1,13.15,26.08,148.0
"2009-08-14 01:03:30",1149536,11.67,187,0.955,0.249,22.37,110.1115,25.18,26.28,24.09,0,111.1,13.15,26.02,149.0
"2009-08-14 01:04:00",1149537,11.85,186.8,1.688,0.266,22.29,110.1045,25.16,26.25,24.13,0,111.1,13.15,26.00,148.8
"2009-08-14 01:04:30",1149538,11.92,186.9,1.603,0.42,22.36,110.0795,25.1,26.21,23.58,0,111.1,13.15,25.94,148.9
"2009-08-14 01:05:00",1149539,12.34,186.3,0.993,0.272,22.37,110.0761,25.09,26.16,23.01,0,111.1,13.15,25.93,148.3
"2009-08-14 01:05:30",1149540,12.01,186.5,0.61,0.11,22.53,110.0559,25.04,26.14,21.81,0,111.1,13.15,25.88,148.5
"2009-08-14 01:06:00",1149541,11.9,186.3,1.342,0.29,22.29,110.0438,25.01,26.1,22.62,0,111.1,13.15,25.85,148.3
"2009-08-14 01:06:30",1149542,11.98,187.7,1.237,0.178,22.45,110.041,25,26.07,22.66,0,111.1,13.15,25.84,149.7
"2009-08-14 01:07:00",1149543,12.07,185.2,0.853,0.266,22.19,110.0174,24.94,26.05,23.36,0,111.1,13.15,25.78,147.2
"2009-08-14 01:07:30",1149544,12.38,186.7,1.362,0.172,22.4,110.0104,24.92,26.03,23.46,0,111.1,13.15,25.76,148.7
"2009-08-14 01:08:00",1149545,12.3,186,1.507,0.25,22.31,110.0101,24.92,25.99,23.48,0,111.1,13.15,25.76,148.0
"2009-08-14 01:08:30",1149546,12.75,186.8,1.855,0.337,22.34,109.9975,24.89,25.96,24.09,0,111.1,13.15,25.73,148.8
"2009-08-14 01:09:00",1149547,12.82,186,0.575,0.221,22.32,109.9775,24.84,25.94,24.51,0,111.1,13.15,25.68,148.0
"2009-08-14 01:09:30",1149548,13.04,186.2,1.197,0.201,22.36,109.9764,24.83,25.92,24.53,0,111.1,13.15,25.67,148.2
"2009-08-14 01:10:00",1149549,13.2,186.2,0.478,0.181,22.4,109.9764,24.83,25.89,24.86,0,111.1,13.16,25.67,148.2
"2009-08-14 01:10:30",1149550,13.44,186.6,0.527,0.138,22.43,109.9716,24.82,25.87,25.05,0,111.1,13.16,25.66,148.6
"2009-08-14 01:11:00",1149551,13.67,186.5,0.644,0.168,22.38,109.9548,24.78,25.85,24.95,0,111.1,13.16,25.62,148.5
"2009-08-14 01:11:30",1149552,13.7,186.5,0.502,0.09,22.39,109.9436,24.75,25.83,25.08,0,111.1,13.15,25.59,148.5
"2009-08-14 01:12:00",1149553,13.77,187.4,0.48,0.088,22.44,109.9439,24.75,25.82,24.86,0,111.1,13.15,25.59,149.4
"2009-08-14 01:12:30",1149554,13.63,187.5,0.717,0.097,22.47,109.9458,24.76,25.81,24.39,0,111.1,13.15,25.59,149.5
"2009-08-14 01:13:00",1149555,14.1,188.6,0.859,0.245,22.53,109.9438,24.75,25.79,24.39,0,111.1,13.15,25.59,150.6
"2009-08-14 01:13:30",1149556,13.82,189.5,0.67,0.241,22.53,109.9321,24.72,25.77,24.42,0,111.1,13.15,25.56,151.5
"2009-08-14 01:14:00",1149557,14.21,191.2,0.545,0.202,22.48,109.9274,24.71,25.75,24.47,0,111.1,13.15,25.55,153.2
"2009-08-14 01:14:30",1149558,13.42,192.7,0.655,0.146,22.49,109.9322,24.72,25.74,24.72,0,111.1,13.15,25.56,154.7
"2009-08-14 01:15:00",1149559,13.59,193.7,0.513,0.119,22.48,109.9309,24.72,25.72,24.84,0,111.1,13.15,25.56,155.7
"2009-08-14 01:15:30",1149560,13.57,194,0.611,0.097,22.48,109.9359,24.73,25.71,24.3,0,111.1,13.15,25.57,156.0
"2009-08-14 01:16:00",1149561,13.64,193.9,0.525,0.083,22.48,109.9365,24.73,25.7,23.02,0,111.1,13.15,25.57,155.9
"2009-08-14 01:16:30",1149562,13.38,194.7,0.62,0.084,22.47,109.9368,24.73,25.7,23.1,0,111.1,13.15,25.57,156.7
"2009-08-14 01:17:00",1149563,13.18,196.7,1.464,0.191,22.41,109.9368,24.73,25.68,23.05,0,111.1,13.15,25.57,158.7
"2009-08-14 01:17:30",1149564,13.87,196.8,0.634,0.168,22.38,109.9365,24.73,25.68,23.11,0,111.1,13.16,25.57,158.8
"2009-08-14 01:18:00",1149565,13.88,197.1,0.185,0.058,22.37,109.9363,24.73,25.68,22.97,0,111.1,13.16,25.57,159.1
"2009-08-14 01:18:30",1149566,13.88,195.7,0.723,0.165,22.41,109.9371,24.73,25.67,23.17,0,111.1,13.16,25.57,157.7
"2009-08-14 01:19:00",1149567,13.79,196.2,0.914,0.186,22.37,109.9368,24.73,25.67,23.28,0,111.1,13.16,25.57,158.2
"2009-08-14 01:19:30",1149568,14.05,197.8,0.592,0.123,22.41,109.9377,24.73,25.67,23.42,0,111.1,13.16,25.57,159.8
"2009-08-14 01:20:00",1149569,14.15,199.1,0.364,0.078,22.48,109.9386,24.74,25.66,23.31,0,111.1,13.16,25.57,161.1
"2009-08-14 01:20:30",1149570,14.14,198.9,0.5,0.112,22.51,109.9402,24.74,25.67,23.35,0,111.1,13.16,25.58,160.9
"2009-08-14 01:21:00",1149571,14.04,199.4,0.37,0.066,22.56,109.9417,24.74,25.67,23.43,0,111.1,13.16,25.58,161.4
"2009-08-14 01:21:30",1149572,14.17,199.4,0.599,0.106,22.52,109.9448,24.75,25.69,23.44,0,111.1,13.16,25.59,161.4
"2009-08-14 01:22:00",1149573,14.25,199.5,0.425,0.11,22.52,109.9454,24.75,25.67,23.27,0,111.1,13.16,25.59,161.5
"2009-08-14 01:22:30",1149574,14.33,198.5,0.79,0.109,22.54,109.9454,24.75,25.68,22.9,0,111.1,13.16,25.59,160.5
"2009-08-14 01:23:00",1149575,14.73,196.7,0.507,0.111,22.56,109.9469,24.76,25.69,23.1,0,111.1,13.16,25.60,158.7
"2009-08-14 01:23:30",1149576,14.75,197.1,0.545,0.085,22.53,109.9516,24.77,25.69,23.24,0,111.1,13.16,25.61,159.1
"2009-08-14 01:24:00",1149577,14.88,197.6,0.602,0.134,22.46,109.9576,24.79,25.72,23.53,0,111.1,13.16,25.62,159.6
"2009-08-14 01:24:30",1149578,15.08,196.7,0.741,0.106,22.39,109.9649,24.8,25.72,23.64,0,111.1,13.16,25.64,158.7
"2009-08-14 01:25:00",1149579,14.8,198.1,0.94,0.154,22.4,109.977,24.84,25.73,23.8,0,111.1,13.16,25.67,160.1
"2009-08-14 01:25:30",1149580,14.65,197,1.103,0.185,22.39,109.9798,24.84,25.74,23.86,0,111.1,13.16,25.68,159.0
"2009-08-14 01:26:00",1149581,15.12,196.8,1.043,0.257,22.37,109.9798,24.84,25.74,23.97,0,111,13.16,25.68,158.8
"2009-08-14 01:26:30",1149582,15.51,196.2,0.345,0.185,22.38,109.9798,24.84,25.75,24.06,0,111.1,13.16,25.68,158.2
"2009-08-14 01:27:00",1149583,15.71,196.3,1.057,0.214,22.38,109.9798,24.84,25.75,24.13,0,111.1,13.16,25.68,158.3
"2009-08-14 01:27:30",1149584,15.51,195.7,0.827,0.181,22.36,109.9798,24.84,25.76,24.3,0,111,13.16,25.68,157.7
"2009-08-14 01:28:00",1149585,15.21,196.8,0.705,0.112,22.33,109.9798,24.84,25.77,24.34,0,111.1,13.16,25.68,158.8
"2009-08-14 01:28:30",1149586,14.98,196.2,0.486,0.144,22.34,109.9798,24.84,25.76,24.35,0,111,13.16,25.68,158.2
"2009-08-14 01:29:00",1149587,14.75,196.5,1.262,0.185,22.34,109.9798,24.84,25.77,24.44,0,111.1,13.16,25.68,158.5
"2009-08-14 01:29:30",1149588,14.95,196.8,1.282,0.338,22.35,109.9798,24.84,25.78,24.52,0,111,13.16,25.68,158.8
"2009-08-14 01:30:00",1149589,15.68,197.4,1.973,0.348,22.33,109.9798,24.84,25.78,24.79,0,111,13.16,25.68,159.4
"2009-08-14 01:30:30",1149590,15.74,196.8,1.52,0.275,22.35,109.9798,24.84,25.79,24.94,0,111,13.16,25.68,158.8
"2009-08-14 01:31:00",1149591,15.61,198.2,1.388,0.328,22.3,109.9798,24.84,25.79,25.02,0,111,13.16,25.68,160.2
"2009-08-14 01:31:30",1149592,15.68,198.9,1.731,0.204,22.29,109.9784,24.84,25.78,25.14,0,111,13.15,25.68,160.9
"2009-08-14 01:32:00",1149593,15.08,197,1.115,0.359,22.29,109.9719,24.82,25.77,25.26,0,111,13.15,25.66,159.0
"2009-08-14 01:32:30",1149594,15.62,199,0.605,0.238,22.33,109.9601,24.79,25.77,25.37,0,111,13.16,25.63,161.0
"2009-08-14 01:33:00",1149595,15.32,198.6,1.269,0.423,22.29,109.9503,24.77,25.76,25.43,0,111,13.16,25.61,160.6
"2009-08-14 01:33:30",1149596,15.37,197.8,2,0.402,22.28,109.9466,24.76,25.75,25.38,0,111,13.16,25.60,159.8
"2009-08-14 01:34:00",1149597,15.15,198.5,1.707,0.511,22.26,109.946,24.76,25.74,25.45,0,111,13.16,25.59,160.5
"2009-08-14 01:34:30",1149598,14.91,200.4,1.026,0.269,22.23,109.946,24.76,25.73,25.54,0,111,13.17,25.59,162.4
"2009-08-14 01:35:00",1149599,14.94,199.8,1.18,0.286,22.21,109.9458,24.76,25.72,25.53,0,111,13.16,25.59,161.8
"2009-08-14 01:35:30",1149600,14.85,198.2,1.292,0.291,22.26,109.9331,24.72,25.7,25.64,0,111,13.16,25.56,160.2
"2009-08-14 01:36:00",1149601,14.97,199.5,1.209,0.166,22.24,109.9183,24.68,25.68,25.74,0,111,13.16,25.52,161.5
"2009-08-14 01:36:30",1149602,14.6,199.5,1.716,0.313,22.22,109.913,24.67,25.68,25.75,0,111,13.16,25.51,161.5
"2009-08-14 01:37:00",1149603,14.75,200,1.929,0.207,22.31,109.9139,24.67,25.67,25.88,0,111,13.16,25.51,162.0
"2009-08-14 01:37:30",1149604,14.54,199.7,1.574,0.36,22.28,109.9136,24.67,25.65,25.88,0,111,13.16,25.51,161.7
"2009-08-14 01:38:00",1149605,14.61,201.2,1.824,0.311,22.26,109.9094,24.66,25.64,25.94,0,111,13.16,25.50,163.2
"2009-08-14 01:38:30",1149606,14.76,201.2,1.336,0.195,22.27,109.9003,24.64,25.62,26.01,0,111,13.16,25.48,163.2
"2009-08-14 01:39:00",1149607,14.19,202.7,1.257,0.277,22.22,109.888,24.61,25.62,26.07,0,111,13.16,25.44,164.7
"2009-08-14 01:39:30",1149608,14.63,202,1.104,0.223,22.23,109.8799,24.59,25.6,26.08,0,111,13.16,25.42,164.0
"2009-08-14 01:40:00",1149609,14.33,201.2,0.735,0.232,22.23,109.8808,24.59,25.58,26.14,0,111,13.16,25.43,163.2
"2009-08-14 01:40:30",1149610,14.39,202.5,0.744,0.143,22.36,109.8817,24.59,25.56,26.04,0,111,13.16,25.43,164.5
"2009-08-14 01:41:00",1149611,14.57,202.2,0.981,0.164,22.34,109.8815,24.59,25.55,25.78,0,111,13.16,25.43,164.2
"2009-08-14 01:41:30",1149612,13.87,199.8,1.831,0.248,22.19,109.872,24.57,25.55,26.09,0,111,13.17,25.40,161.8
"2009-08-14 01:42:00",1149613,14.52,199.9,1.28,0.207,22.22,109.8608,24.54,25.54,26.08,0,111,13.17,25.37,161.9
"2009-08-14 01:42:30",1149614,14.15,197.7,1.382,0.383,22.19,109.8521,24.51,25.53,26.03,0,111,13.17,25.35,159.7
"2009-08-14 01:43:00",1149615,13.95,198,1.416,0.487,22.17,109.8505,24.51,25.54,26.18,0,111,13.17,25.35,160.0
"2009-08-14 01:43:30",1149616,14.4,199.3,1.322,0.475,22.17,109.8508,24.51,25.53,26.21,0,111,13.17,25.35,161.3
"2009-08-14 01:44:00",1149617,14.74,199,1.511,0.328,22.19,109.8526,24.52,25.52,26.24,0,111,13.17,25.35,161.0
"2009-08-14 01:44:30",1149618,14.91,200.1,0.931,0.157,22.17,109.8526,24.52,25.51,26.18,0,111,13.17,25.35,162.1
"2009-08-14 01:45:00",1149619,15.07,201.4,0.911,0.161,22.16,109.856,24.52,25.5,26.22,0,111,13.17,25.36,163.4
"2009-08-14 01:45:30",1149620,14.8,200.6,0.644,0.224,22.19,109.8579,24.53,25.49,25.55,0,111,13.17,25.37,162.6
"2009-08-14 01:46:00",1149621,14.7,200.2,1.208,0.275,22.14,109.8597,24.53,25.49,25.46,0,111,13.16,25.37,162.2
"2009-08-14 01:46:30",1149622,14.54,200.8,0.707,0.26,22.14,109.8609,24.54,25.48,25.53,0,111,13.16,25.37,162.8
"2009-08-14 01:47:00",1149623,14.5,201.5,1.306,0.25,22.18,109.8527,24.52,25.47,25.52,0,111,13.16,25.35,163.5